Weather in Ploskoe

Russia / Vologda Oblast     58°38′27″N   40°16′55″E
temp.,
°C
wind,
m/s
gust,
m/s
humid.,
%
clouds,
%
prec.,
mm/h
press.,
hPa
HPBL,
m
13 june, sun
sun1300:00+14se269024 0.0 1007116
03:00+13ese279857 0.0 1007158
06:00+16se3688100 0.0 1006257
09:00+19sse357789 0.6 1006778
12:00+20s358588 2.5 1006977
15:00+21ssw23785 5.3 1006852
18:00+20s237817 0.9 1006361
21:00+16s22911 1.3 100719
14 june, mon
mon1400:00+14sw22930 0.0 100821
03:00+13sw22941 0.0 100931
06:00+16sw25890 0.0 1010128
09:00+20sw3565100 0.0 1011426
12:00+22sw355558 0.0 1012655
15:00+25wsw4646100 0.0 10122147
18:00+20wnw3780100 0.5 1012295
21:00+16nw249511 2.1 101380
15 june, tue
tue1500:00+13nnw269695 0.0 1014125
03:00+11nnw119498 0.0 101410
06:00+13nw11885 0.0 101480
09:00+20w11475 0.0 1013588
12:00+23wsw354660 0.0 10121676
15:00+24wsw354831 0.0 10101713
18:00+20wsw2569100 0.0 1010135
21:00+18wsw227874 0.1 100932
16 june, wed
wed1600:00+14sw259133 0.0 100982
03:00+14w268295 0.0 1009147
06:00+14nw3782100 0.0 1010313
09:00+15nw26775 0.1 1011641
12:00+20nw683792 0.0 10112735
15:00+21wnw49305 0.0 10122992
18:00+19nw484274 0.0 10132805
21:00+13nw38660 0.0 1015194
17 june, thu
thu1700:00+9wnw311620 0.0 1017225
03:00+7wnw26694 0.0 1019121
06:00+11nnw36640 0.0 1020216
09:00+17nnw35470 0.0 10211139
12:00+19nnw46385 0.0 10222147
15:00+20nnw46345 0.0 10222315
18:00+19nnw36400 0.0 10231696
21:00+12nw28610 0.0 1025132